Showing default

FLOCK 4BE 24, 60505

Orbit data source: Space-Track

FLOCK 4BE 24, 60505 is a payload satellite owned by Planet (US) in SSO that was launched on Fri, 16 Aug 2024 UTC via an FALCON 9 launch vehicle from the Air Force Western Test Range (AFWTR). Payload-class satellites include a variety of spacecraft equipped with specific instruments for various scientific and technological missions. These include communications satellites like Starlink; space stations such as the ISS; scientific satellites like the Hubble; Earth observation satellites from companies like Planet Labs, Umbra, and HawkEye 360; GPS; miniature CubeSats for education and research; and military/defense satellites.

Loading next visibility...
Identifier
60505, 2024-149AP
Orbit
SSO
Country
Flag of USUS
Related business
Manufacturer
Planet
Mission
Operational Commercial Imaging
Bus & Motor
CUBESAT 3U, Unknown motor
Mass
5.7 kg wet, 5.7 kg dry
Launch date (UTC)
2024-08-16 (2 years ago)
Launch vehicle
FALCON 9
Launch site
Air Force Western Test Range (AFWTR)
Object type
Payload
Rocket body
Debris
Shape & HBR
Box + 2 Pan, 1.0 m
Radar Cross Section
0.072 m², Medium (>0.1 m² and < 1m²)

Expand to show TLE details & history
Last TLE update: 2 days ago

TLE from 2 days ago
0 FLOCK 4BE 24
1 60505U 24149AP  26235.68709572  .00019023  00000-0  39811-3 0  9998
2 60505  97.3685 321.0249 0004347  60.6542 299.5141 15.45492144112787
Epoch: 2026-08-23T16:29Z
TLE epoch observation values (Epoch: 2026-08-23T16:29:25.070Z)
Latitude
0.00002°
Longitude
101.69086°
Altitude
431.601 km
Speed
7.653 km/s
True Right ascension
21h 24m 05s
True Declination
0° 00' 00"
Sunlit
Object was in full shadow at epoch
Visualization orbit readout
Latitude
Unknown
Longitude
Unknown
Altitude
Unknown
Speed
Unknown
Apparent Right ascension
Unknown
Apparent Declination
Unknown
Sunlit
N/A
Visualization observer readout
Local Sidereal Time
00:22:25
Azimuth
Unknown
Elevation
Unknown
Doppler factor
Unknown
Orbital elements
Apogee altitude
429.821 km
Perigee altitude
423.905 km
Semi-major axis
6,805 km
Eccentricity
0.00043
Inclination
97.3685°
RAAN
321.0249°
Arg. of periapsis
60.6542°
True anomaly
299.47074°
Mean anomaly
299.5141°
Eccentric anomaly
299.49242°
Mean motion
3.86635 °/min
Orbital period
93.11 mins
BSTAR
0.00039811
Loading maneuver chart data...
Computing Atmospheric mass density...
Loading historical data...
Loading historical data...
Loading historical data...
Loading historical data...
Loading historical data...
Loading historical data...
Loading historical data...

Documentation

Showing up to 5 results
|